User: anonymous   Login
Location: Wien
(48.2082°N, 16.3738°E)
Time: 02:53:59
(UTC+01:00)
Language:

EO-79 - Orbit

View from above orbital plane
View from above orbital plane
View from above satellite
View from above satellite

Ground track
Ground track

The orbit data is extracted from the following two-line orbital elements,

1 40025U 14033R   19320.83634450  .00000254  00000-0  33015-4 0  9997
2 40025  97.9070 240.2669 0011065 284.5309  75.4680 14.89020786293816
Epoch (UTC): 16 November 2019 20:04:20
Eccentricity: 0.0011065
inclination: 97.9070°
perigee height: 593 km
apogee height: 609 km
right ascension of ascending node: 240.2669°
argument of perigee: 284.5309°
revolutions per day: 14.89020786
mean anomaly at epoch: 75.4680°
orbit number at epoch: 29381

The dashed part of the orbit path shows where the satellite is in the earth's shadow,  

DLR